Location: Wildlife_Club
(35.6000°N, 81.4330°W)
Time: 19:43:43
(UTC-04:00)

Amateur Radio Satellites - All Passes

Search period start: 31 May 2016 19:13
Search period end: 01 June 2016 19:13
Location: Wildlife_Club, 35.6000°N, 81.4330°W

Satellite Date Start Highest point End Downlink Frequencies (MHz)
Time Altitude Azimuth
BEESAT 3 31 May 19:24:08 19:27:02 19° 51° (NE) 19:29:55 437.485
PHONESAT 2.4 31 May 19:25:42 19:27:28 14° 144° (SE) 19:29:14 2401.200-2431.200
STRAND 1 31 May 19:26:20 19:28:37 13° 92° (E) 19:30:54 437.568
LilacSat-2 31 May 19:28:02 19:31:35 39° 261° (W) 19:35:09 437.200
BRITE-PL 31 May 19:32:17 19:37:37 42° 262° (W) 19:42:59 437.365/2234.400
CUBESAT XI-V 31 May 19:32:46 19:37:02 35° 288° (WNW) 19:41:15 437.345
GOMX 1 31 May 19:33:36 19:39:06 81° 258° (WSW) 19:44:28 467.674
NOAA 18 31 May 19:36:45 19:41:40 34° 262° (W) 19:46:36 137.9125
RS-15 31 May 19:43:26 19:53:08 30° 321° (NW) 20:03:19 29.354- 29.394
AUBIESAT-1 31 May 19:45:28 19:48:20 19° 66° (ENE) 19:51:04 437.475
CUTE-I 31 May 19:46:41 19:51:25 33° 262° (W) 19:56:12 437.470
M-CUBED/EXP-1 PRIME 31 May 19:55:23 19:59:03 32° 69° (ENE) 20:02:28 437.505
CINEMA 3 31 May 19:58:53 20:02:39 25° 71° (ENE) 20:06:18 145.822/145.860
DOVE 4 31 May 19:59:58 20:05:11 89° 257° (WSW) 20:10:11 437.250
PCSat 31 May 20:01:37 20:06:18 30° 252° (WSW) 20:10:58 145.827
SEEDS 31 May 20:10:16 20:13:18 20° 69° (ENE) 20:16:21 437.485
O/OREOS (USA 219) 31 May 20:11:06 20:15:11 35° 256° (WSW) 20:19:15 437.305
CANX-2 31 May 20:15:52 20:19:44 37° 73° (ENE) 20:23:39 2200.000
ISS 31 May 20:17:03 20:20:18 85° 318° (NW) 20:23:34 145.825
CUBEBUG 2 31 May 20:20:16 20:21:36 11° 66° (ENE) 20:22:56 437.445
HO-68 31 May 20:34:41 20:41:46 74° 73° (ENE) 20:48:55 435.675
BEESAT 2 31 May 20:35:10 20:39:08 65° 59° (ENE) 20:43:04 435.950
UWE-3 31 May 20:38:39 20:40:26 12° 67° (ENE) 20:42:10 435.000/436.395/437.385
CUTE 1.7 + AOD 2 31 May 20:41:53 20:46:02 68° 77° (ENE) 20:50:15 437.475
AAUSAT CUBESAT 2 31 May 20:45:12 20:48:43 28° 71° (ENE) 20:52:15 437.432
GONETS M04 31 May 20:46:36 20:52:18 19° 80° (E) 20:57:57
PRISM 31 May 20:46:55 20:48:41 12° 93° (E) 20:50:26 437.425
COMPASS 1 31 May 20:46:55 20:50:44 37° 73° (ENE) 20:54:35 437.405
PHONESAT 2.4 31 May 21:00:44 21:03:52 86° 154° (SSE) 21:07:01 2401.200-2431.200
BEESAT 3 31 May 21:01:15 21:04:45 31° 247° (WSW) 21:08:14 437.485
STRAND 1 31 May 21:03:04 21:08:09 63° 286° (WNW) 21:13:14 437.568
Oscar 11 31 May 21:05:32 21:08:35 19° 69° (ENE) 21:11:41 145.826/435.025
AIST 1 31 May 21:09:11 21:13:25 50° 93° (E) 21:17:42
AUBIESAT-1 31 May 21:19:13 21:22:40 26° 257° (WSW) 21:25:56 437.475
Cosmos 2499 31 May 21:23:58 21:28:19 17° 80° (E) 21:32:50 435.465 / 435.565
ZACube-1 31 May 21:28:12 21:31:53 30° 72° (ENE) 21:35:32 437.345
CUSAT 1 31 May 21:30:16 21:33:29 13° 60° (ENE) 21:36:27 437.405
M-CUBED/EXP-1 PRIME 31 May 21:30:57 21:33:35 16° 259° (W) 21:36:07 437.505
CINEMA 3 31 May 21:35:41 21:39:39 27° 263° (W) 21:43:31 145.822/145.860
SEEDS 31 May 21:45:12 21:48:48 28° 264° (W) 21:52:25 437.485
AIST 2 31 May 21:45:33 21:48:51 22° 52° (NE) 21:52:09 435.215
CANX-2 31 May 21:53:21 21:55:43 15° 267° (W) 21:58:06 2200.000
CUBEBUG 2 31 May 21:53:31 21:57:47 54° 260° (W) 22:01:56 437.445
ISS 31 May 21:55:43 21:57:11 12° 335° (NNW) 21:58:39 145.825
FUNcube-1 31 May 22:03:07 22:07:18 78° 76° (ENE) 22:11:27 145.935
DANDE 31 May 22:04:58 22:09:41 16° 62° (ENE) 22:14:04 436.750
RS-15 31 May 22:05:47 22:11:35 14° 356° (N) 22:17:29 29.354- 29.394
DELFI C3 31 May 22:11:27 22:15:17 50° 75° (ENE) 22:19:09 145.870
UWE-3 31 May 22:12:21 22:16:29 47° 260° (W) 22:20:32 435.000/436.395/437.385
PRISM 31 May 22:20:13 22:24:11 43° 287° (WNW) 22:28:06 437.425
AAUSAT CUBESAT 2 31 May 22:21:12 22:24:10 19° 266° (W) 22:27:10 437.432
COMPASS 1 31 May 22:24:08 22:26:25 14° 267° (W) 22:28:42 437.405
HO-68 31 May 22:25:39 22:30:03 17° 268° (W) 22:34:28 435.675
SO-50 31 May 22:30:07 22:30:30 10° 106° (ESE) 22:30:53 436.795
HUMSAT D 31 May 22:31:30 22:35:14 36° 73° (ENE) 22:38:59 437.325/437.525
PHONESAT 2.4 31 May 22:37:53 22:40:48 33° 354° (N) 22:43:42 2401.200-2431.200
GONETS M04 31 May 22:39:17 22:48:04 76° 277° (W) 22:56:52
Oscar 11 31 May 22:40:43 22:44:30 30° 263° (W) 22:48:19 145.826/435.025
AIST 1 31 May 22:49:48 22:51:19 12° 288° (WNW) 22:52:50
ZACube-1 31 May 23:05:19 23:08:11 18° 265° (W) 23:11:03 437.345
UNISAT 6 31 May 23:08:36 23:12:21 28° 97° (E) 23:16:09 437.425
CUSAT 1 31 May 23:09:42 23:17:01 88° 88° (E) 23:22:41 437.405
DX 1 31 May 23:11:02 23:11:36 10° 64° (ENE) 23:12:11 434.975-435.025
CUBEBUG 1 31 May 23:11:29 23:13:38 13° 66° (ENE) 23:15:48 437.445
Cosmos 2499 31 May 23:13:06 23:20:21 72° 278° (W) 23:28:11 435.465 / 435.565
TIGRISAT 31 May 23:14:26 23:18:16 30° 98° (E) 23:22:10 435.000
50 SAT 31 May 23:15:18 23:16:51 12° 67° (ENE) 23:18:25 437.505
AIST 2 31 May 23:23:44 23:27:19 29° 248° (WSW) 23:30:54 435.215
ESTCUBE 1 31 May 23:27:02 23:30:58 30° 71° (ENE) 23:34:54 437.505/2401.250
VELOX 1 31 May 23:29:42 23:33:04 21° 68° (ENE) 23:36:25 145.980
DANDE 31 May 23:45:34 23:53:54 86° 81° (E) 00:00:49 436.750
UKube-1 31 May 23:48:17 23:51:39 22° 69° (ENE) 23:55:01 .
ANTELSAT 31 May 23:49:10 23:53:31 85° 102° (ESE) 23:57:58 437.575/2403.000
NANOSAT C BR1 31 May 23:49:14 23:50:34 11° 92° (E) 23:51:55 145.865
AISAT 01 Jun 00:05:14 00:09:37 57° 74° (ENE) 00:14:01 437.250
SO-50 01 Jun 00:05:24 00:10:18 79° 300° (WNW) 00:15:13 436.795
HUMSAT D 01 Jun 00:08:52 00:10:58 14° 267° (W) 00:13:06 437.325/437.525
PHONESAT 2.4 01 Jun 00:14:57 00:17:55 38° 10° (N) 00:20:52 2401.200-2431.200
RS-15 01 Jun 00:21:22 00:30:50 25° 33° (NNE) 00:40:18 29.354- 29.394
DUCHIFAT 1 01 Jun 00:23:28 00:27:06 28° 97° (E) 00:30:43 145.980
BUGSAT 1 01 Jun 00:23:40 00:24:59 11° 93° (E) 00:26:18 437.445
DX 1 01 Jun 00:42:52 00:47:12 65° 258° (WSW) 00:51:35 434.975-435.025
GONETS M04 01 Jun 00:43:02 00:46:24 12° 297° (WNW) 00:49:45
CUBEBUG 1 01 Jun 00:45:10 00:49:28 49° 260° (W) 00:53:47 437.445
UNISAT 6 01 Jun 00:45:34 00:48:54 22° 290° (WNW) 00:52:16 437.425
50 SAT 01 Jun 00:46:55 00:50:14 34° 262° (W) 00:53:35 437.505
SPROUT 01 Jun 00:50:08 00:54:23 67° 76° (ENE) 00:58:38 437.525
TIGRISAT 01 Jun 00:51:36 00:54:46 20° 291° (WNW) 00:57:57 435.000
CUSAT 1 01 Jun 00:55:14 00:57:33 12° 283° (WNW) 00:59:44 437.405
TISAT 1 01 Jun 00:57:46 01:00:53 20° 69° (ENE) 01:04:00 437.305
ESTCUBE 1 01 Jun 01:04:17 01:07:44 21° 265° (W) 01:11:14 437.505/2401.250
VELOX 1 01 Jun 01:05:24 01:09:19 30° 263° (W) 01:13:15 145.980
QB50P1 01 Jun 01:06:44 01:10:55 71° 284° (WNW) 01:15:05 145.935-145.965
POPSAT HIP 1 01 Jun 01:06:48 01:10:59 73° 284° (WNW) 01:15:10 437.405
QB50P2 01 Jun 01:10:49 01:14:58 60° 285° (WNW) 01:19:05 145.880/145.840
POLYITAN 1 01 Jun 01:13:18 01:17:27 58° 285° (WNW) 01:21:34 437.675
NANOSAT C BR1 01 Jun 01:22:30 01:26:32 47° 286° (WNW) 01:30:33 145.865
UKube-1 01 Jun 01:23:52 01:27:31 27° 263° (W) 01:31:13 .
JAS-2 01 Jun 01:24:06 01:30:07 30° 93° (E) 01:35:31 435.910
DANDE 01 Jun 01:30:52 01:35:22 16° 281° (WNW) 01:39:33 436.750
AISAT 01 Jun 01:45:15 01:46:23 11° 268° (W) 01:47:32 437.250
Oscar 19 01 Jun 01:45:16 01:48:20 16° 93° (E) 01:51:23 437.125/150
SO-50 01 Jun 01:50:14 01:51:34 11° 318° (NW) 01:52:54 436.795
PHONESAT 2.4 01 Jun 01:51:39 01:54:44 57° 205° (SSW) 01:57:48 2401.200-2431.200
BUGSAT 1 01 Jun 01:56:45 02:00:34 43° 286° (WNW) 02:04:22 437.445
DUCHIFAT 1 01 Jun 01:59:35 02:02:35 19° 291° (WNW) 02:05:34 145.980
SWISSCUBE 01 Jun 02:20:09 02:24:27 36° 71° (ENE) 02:28:48 437.505
ITUPSAT 1 01 Jun 02:28:53 02:33:17 39° 71° (ENE) 02:37:43 437.325
TISAT 1 01 Jun 02:32:43 02:36:21 28° 263° (W) 02:39:59 437.305
RS-15 01 Jun 02:33:25 02:45:49 75° 59° (ENE) 02:58:03 29.354- 29.394
Gurwin Techsat 1B 01 Jun 02:45:41 02:50:08 27° 96° (E) 02:54:35 435.225
ISS 01 Jun 02:47:21 02:50:15 29° 35° (NE) 02:53:09 145.825
BEESAT 01 Jun 02:48:49 02:53:31 67° 74° (ENE) 02:58:15 436.000
YUBILEINY 01 Jun 03:02:20 03:10:27 40° 76° (ENE) 03:18:32 435.215
JAS-2 01 Jun 03:08:37 03:15:17 43° 292° (WNW) 03:21:13 435.910
MOZHAYETS 4 01 Jun 03:20:06 03:21:26 11° 64° (ENE) 03:22:47
Oscar 19 01 Jun 03:22:56 03:27:55 51° 287° (WNW) 03:32:51 437.125/150
Cosmos 2491 01 Jun 03:55:04 04:03:27 50° 89° (E) 04:11:50 435.465 / 435.565
AO-85 01 Jun 03:56:50 03:57:18 10° 105° (ESE) 03:57:45 145.980
SWISSCUBE 01 Jun 03:58:52 04:02:18 20° 265° (W) 04:05:46 437.505
KKS-1 01 Jun 04:02:26 04:06:42 46° 73° (ENE) 04:10:58 437.445
ITUPSAT 1 01 Jun 04:07:59 04:11:14 18° 266° (W) 04:14:29 437.325
ITAMSAT 1 01 Jun 04:15:01 04:20:15 76° 103° (ESE) 04:25:28 435.822/435.867
ISS 01 Jun 04:23:58 04:26:35 22° 230° (SW) 04:29:12 145.825
STARS 01 Jun 04:24:48 04:28:55 40° 72° (ENE) 04:33:02 437.465
AO-7 01 Jun 04:25:13 04:32:46 36° 99° (E) 04:40:16 29.400- 29.500
Gurwin Techsat 1B 01 Jun 04:25:21 04:30:03 33° 291° (WNW) 04:34:44 435.225
BEESAT 01 Jun 04:31:06 04:31:42 10° 269° (W) 04:32:17 436.000
Cosmos 2504 01 Jun 04:47:28 04:55:54 56° 79° (E) 05:04:34 435.465 / 435.565
RS-15 01 Jun 04:47:28 04:57:08 28° 258° (WSW) 05:06:43 29.354- 29.394
MOZHAYETS 4 01 Jun 04:53:31 04:58:01 63° 259° (W) 05:02:34
CUBESAT XI-V 01 Jun 04:57:33 05:00:06 15° 66° (ENE) 05:02:39 437.345
YUBILEINY 01 Jun 04:59:12 05:07:07 40° 273° (W) 05:15:03 435.215
HORYU 2 01 Jun 05:23:30 05:26:50 21° 95° (E) 05:30:10 437.375
JUGNU 01 Jun 05:26:19 05:29:43 16° 173° (S) 05:33:07 437.505
AO-85 01 Jun 05:31:36 05:37:03 89° 120° (ESE) 05:42:28 145.980
KKS-1 01 Jun 05:41:14 05:43:28 14° 267° (W) 05:45:41 437.445
Cosmos 2491 01 Jun 05:52:53 06:00:29 32° 287° (WNW) 06:08:07 435.465 / 435.565
ITAMSAT 1 01 Jun 05:57:02 05:59:02 12° 298° (WNW) 06:01:02 435.822/435.867
STARS 01 Jun 06:02:51 06:05:25 15° 266° (W) 06:07:57 437.465
AO-7 01 Jun 06:17:43 06:25:32 46° 295° (WNW) 06:33:22 29.400- 29.500
NOAA 18 01 Jun 06:22:45 06:25:31 14° 93° (E) 06:28:15 137.9125
CUTE-I 01 Jun 06:28:32 06:30:55 13° 92° (E) 06:33:16 437.470
CUBESAT XI-V 01 Jun 06:32:28 06:37:00 50° 261° (W) 06:41:35 437.345
STRAND 1 01 Jun 06:39:32 06:42:18 15° 64° (ENE) 06:45:04 437.568
Cosmos 2504 01 Jun 06:41:42 06:48:46 29° 275° (W) 06:56:00 435.465 / 435.565
NOAA 15 01 Jun 06:58:33 07:03:30 39° 99° (E) 07:08:24 137.62
HORYU 2 01 Jun 06:59:30 07:03:23 30° 289° (WNW) 07:07:15 437.375
LilacSat-2 01 Jun 07:04:28 07:07:36 24° 96° (E) 07:10:45 437.200
JUGNU 01 Jun 07:14:19 07:17:59 17° 184° (S) 07:21:40 437.505
AO-85 01 Jun 07:15:17 07:18:14 15° 315° (NW) 07:21:09 145.980
Cubesat XI-IV 01 Jun 07:21:30 07:26:39 45° 99° (E) 07:31:47 437.490
SRMSAT 01 Jun 07:29:27 07:32:47 15° 172° (S) 07:36:08 437.500
GOMX 1 01 Jun 07:39:38 07:43:42 35° 97° (E) 07:47:35 467.674
BRITE-PL 01 Jun 07:40:47 07:45:40 90° 282° (WNW) 07:50:09 437.365/2234.400
NOAA 18 01 Jun 08:01:06 08:06:32 65° 287° (WNW) 08:11:58 137.9125
DOVE 4 01 Jun 08:02:55 08:06:32 27° 96° (E) 08:10:03 437.250
CUTE-I 01 Jun 08:06:01 08:11:21 67° 286° (WNW) 08:16:39 437.470
HO-68 01 Jun 08:07:59 08:11:54 15° 92° (E) 08:15:47 435.675
STRAND 1 01 Jun 08:15:55 08:20:56 59° 259° (W) 08:25:59 437.568
CUTE 1.7 + AOD 2 01 Jun 08:31:06 08:33:34 15° 93° (E) 08:36:01 437.475
NOAA 15 01 Jun 08:38:56 08:42:59 23° 294° (WNW) 08:47:00 137.62
LilacSat-2 01 Jun 08:39:06 08:41:44 18° 290° (WNW) 08:44:22 437.200
SO-50 01 Jun 08:40:06 08:44:31 40° 55° (NE) 08:48:47 436.795
O/OREOS (USA 219) 01 Jun 08:41:03 08:45:12 35° 104° (ESE) 08:49:19 437.305
GONETS M04 01 Jun 08:53:30 09:01:49 48° 78° (ENE) 09:10:05
PCSat 01 Jun 08:56:22 09:01:37 53° 112° (ESE) 09:06:53 145.827
AIST 1 01 Jun 08:56:37 09:00:52 59° 266° (W) 09:05:05
AUBIESAT-1 01 Jun 09:00:50 09:03:10 18° 101° (ESE) 09:05:33 437.475
Cubesat XI-IV 01 Jun 09:02:29 09:06:21 21° 294° (WNW) 09:10:13 437.490
JUGNU 01 Jun 09:04:24 09:06:15 11° 193° (SSW) 09:08:04 437.505
PRISM 01 Jun 09:06:06 09:10:15 86° 75° (ENE) 09:14:27 437.425
Cosmos 2499 01 Jun 09:07:03 09:15:01 37° 75° (ENE) 09:23:00 435.465 / 435.565
M-CUBED/EXP-1 PRIME 01 Jun 09:11:36 09:14:34 31° 104° (ESE) 09:17:36 437.505
SRMSAT 01 Jun 09:17:30 09:21:13 17° 183° (S) 09:24:56 437.500
GOMX 1 01 Jun 09:18:36 09:21:28 17° 294° (WNW) 09:24:15 467.674
SEEDS 01 Jun 09:31:15 09:35:28 56° 100° (E) 09:39:38 437.485
CINEMA 3 01 Jun 09:32:27 09:36:37 88° 112° (ESE) 09:40:49 145.822/145.860
CANX-2 01 Jun 09:39:04 09:43:21 70° 283° (WNW) 09:47:37 2200.000
DOVE 4 01 Jun 09:40:59 09:44:04 20° 291° (WNW) 09:47:04 437.250
CUBEBUG 2 01 Jun 09:47:06 09:50:59 35° 98° (E) 09:54:56 437.445
HO-68 01 Jun 09:53:03 10:00:16 81° 286° (WNW) 10:07:27 435.675
FUNcube-1 01 Jun 09:54:47 09:57:42 18° 95° (E) 10:00:38 145.935
UWE-3 01 Jun 10:04:34 10:08:32 38° 99° (E) 10:12:34 435.000/436.395/437.385
AAUSAT CUBESAT 2 01 Jun 10:04:57 10:09:10 80° 102° (ESE) 10:13:22 437.432
CUTE 1.7 + AOD 2 01 Jun 10:05:32 10:09:31 38° 287° (WNW) 10:13:30 437.475
UNISAT 6 01 Jun 10:05:33 10:08:25 18° 68° (ENE) 10:11:16 437.425
COMPASS 1 01 Jun 10:07:39 10:11:53 74° 283° (WNW) 10:16:05 437.405
TIGRISAT 01 Jun 10:11:05 10:14:07 19° 69° (ENE) 10:17:09 435.000
O/OREOS (USA 219) 01 Jun 10:21:23 10:24:40 19° 299° (WNW) 10:27:57 437.305
SO-50 01 Jun 10:21:29 10:24:37 18° 251° (WSW) 10:27:42 436.795
BEESAT 2 01 Jun 10:24:59 10:28:08 23° 111° (ESE) 10:31:17 435.950
CUSAT 1 01 Jun 10:27:27 10:31:29 17° 79° (E) 10:35:51 437.405
Oscar 11 01 Jun 10:30:10 10:34:27 58° 100° (E) 10:38:45 145.826/435.025
AUBIESAT-1 01 Jun 10:35:11 10:37:36 19° 294° (WNW) 10:40:03 437.475
PCSat 01 Jun 10:41:21 10:45:18 20° 309° (NW) 10:49:18 145.827
ANTELSAT 01 Jun 10:45:04 10:49:15 50° 74° (ENE) 10:53:24 437.575/2403.000
M-CUBED/EXP-1 PRIME 01 Jun 10:48:05 10:48:53 11° 297° (WNW) 10:49:42 437.505
BEESAT 3 01 Jun 10:48:27 10:52:22 87° 117° (ESE) 10:56:19 437.485
GONETS M04 01 Jun 10:50:52 10:58:15 33° 275° (W) 11:05:38
ZACube-1 01 Jun 10:54:38 10:58:53 80° 283° (WNW) 11:03:13 437.345
Cosmos 2499 01 Jun 10:59:58 11:08:09 46° 272° (W) 11:16:25 435.465 / 435.565
SRMSAT 01 Jun 11:07:27 11:09:37 12° 193° (SSW) 11:11:45 437.500
SEEDS 01 Jun 11:09:30 11:10:38 11° 295° (WNW) 11:11:47 437.485
DANDE 01 Jun 11:09:53 11:13:13 15° 78° (ENE) 11:16:54 436.750
DUCHIFAT 1 01 Jun 11:13:36 11:16:03 15° 67° (ENE) 11:18:32 145.980
CUBEBUG 2 01 Jun 11:24:43 11:27:20 16° 292° (WNW) 11:29:58 437.445
DELFI C3 01 Jun 11:26:35 11:30:35 61° 284° (WNW) 11:34:33 145.870
FUNcube-1 01 Jun 11:30:12 11:33:58 32° 287° (WNW) 11:37:47 145.935
JAS-2 01 Jun 11:35:29 11:38:15 12° 55° (NE) 11:41:03 435.910
UNISAT 6 01 Jun 11:40:56 11:44:52 34° 262° (W) 11:48:47 437.425
UWE-3 01 Jun 11:42:13 11:44:41 15° 292° (WNW) 11:47:09 435.000/436.395/437.385
HO-68 01 Jun 11:43:34 11:46:52 14° 304° (NW) 11:50:09 435.675
TIGRISAT 01 Jun 11:46:45 11:50:35 31° 262° (W) 11:54:24 435.000
HUMSAT D 01 Jun 11:52:41 11:56:53 74° 283° (WNW) 12:01:06 437.325/437.525
QB50P1 01 Jun 11:55:55 12:00:03 55° 75° (ENE) 12:04:11 145.935-145.965
POPSAT HIP 1 01 Jun 11:56:04 12:00:11 54° 75° (ENE) 12:04:19 437.405
QB50P2 01 Jun 12:00:06 12:04:17 66° 75° (ENE) 12:08:29 145.880/145.840
AISAT 01 Jun 12:00:12 12:02:19 13° 93° (E) 12:04:26 437.250
BEESAT 2 01 Jun 12:02:32 12:05:50 25° 307° (NW) 12:09:11 435.950
POLYITAN 1 01 Jun 12:02:36 12:06:47 68° 76° (ENE) 12:10:59 437.675
CUSAT 1 01 Jun 12:05:43 12:12:19 81° 278° (W) 12:20:15 437.405
Oscar 11 01 Jun 12:08:47 12:10:03 11° 295° (WNW) 12:11:19 145.826/435.025
NANOSAT C BR1 01 Jun 12:11:09 12:15:23 82° 76° (ENE) 12:19:36 145.865
50 SAT 01 Jun 12:19:14 12:22:14 22° 96° (E) 12:25:12 437.505
ANTELSAT 01 Jun 12:24:51 12:26:12 11° 268° (W) 12:27:33 437.575/2403.000
DX 1 01 Jun 12:34:28 12:38:07 26° 97° (E) 12:41:43 434.975-435.025
CUBEBUG 1 01 Jun 12:36:50 12:40:51 36° 98° (E) 12:44:50 437.445
SPROUT 01 Jun 12:40:39 12:42:54 14° 93° (E) 12:45:08 437.525
BUGSAT 1 01 Jun 12:42:51 12:47:03 82° 75° (ENE) 12:51:12 437.445
DUCHIFAT 1 01 Jun 12:47:30 12:51:25 37° 261° (W) 12:55:21 145.980
DANDE 01 Jun 12:48:54 12:54:40 76° 280° (W) 13:02:11 436.750
VELOX 1 01 Jun 12:57:49 13:02:12 62° 101° (ESE) 13:06:32 145.980
ESTCUBE 1 01 Jun 12:58:24 13:02:59 82° 281° (WNW) 13:07:29 437.505/2401.250
Oscar 19 01 Jun 12:59:17 13:02:47 19° 66° (ENE) 13:06:18 437.125/150
UKube-1 01 Jun 13:13:06 13:17:22 60° 101° (E) 13:21:37 .
JAS-2 01 Jun 13:14:21 13:21:43 67° 73° (ENE) 13:29:31 435.910
AIST 2 01 Jun 13:17:41 13:21:46 69° 300° (WNW) 13:25:54 435.215
AISAT 01 Jun 13:34:48 13:39:00 45° 287° (WNW) 13:43:10 437.250
POPSAT HIP 1 01 Jun 13:35:59 13:36:15 10° 268° (W) 13:36:30 437.405
CUSAT 1 01 Jun 13:52:11 13:55:50 14° 299° (WNW) 13:59:43 437.405
50 SAT 01 Jun 13:53:06 13:55:47 19° 290° (WNW) 13:58:29 437.505
Gurwin Techsat 1B 01 Jun 14:03:51 14:08:31 32° 69° (ENE) 14:13:11 435.225
AO-85 01 Jun 14:07:25 14:11:34 32° 53° (NE) 14:15:21 145.980
Cosmos 2491 01 Jun 14:10:18 14:16:26 21° 68° (ENE) 14:22:31 435.465 / 435.565
DX 1 01 Jun 14:10:43 14:14:09 23° 291° (WNW) 14:17:34 434.975-435.025
CUBEBUG 1 01 Jun 14:14:00 14:16:49 17° 293° (WNW) 14:19:37 437.445
SPROUT 01 Jun 14:15:01 14:19:00 40° 287° (WNW) 14:22:57 437.525
TISAT 1 01 Jun 14:18:53 14:22:58 52° 100° (E) 14:27:01 437.305
SWISSCUBE 01 Jun 14:25:29 14:27:00 11° 92° (E) 14:28:31 437.505
ITUPSAT 1 01 Jun 14:34:06 14:36:12 13° 92° (E) 14:38:18 437.325
Oscar 19 01 Jun 14:36:41 14:41:41 48° 260° (W) 14:46:43 437.125/150
VELOX 1 01 Jun 14:37:02 14:38:05 11° 296° (WNW) 14:39:08 145.980
DANDE 01 Jun 14:37:05 14:39:14 11° 302° (WNW) 14:41:30 436.750
UKube-1 01 Jun 14:51:56 14:52:51 11° 296° (WNW) 14:53:47 .
BEESAT 01 Jun 14:52:39 14:56:18 21° 95° (E) 14:59:56 436.000
JAS-2 01 Jun 15:01:35 15:07:11 23° 269° (W) 15:13:03 435.910
AO-7 01 Jun 15:21:05 15:28:33 39° 63° (ENE) 15:36:03 29.400- 29.500
ITAMSAT 1 01 Jun 15:29:58 15:35:08 85° 76° (ENE) 15:40:21 435.822/435.867
Gurwin Techsat 1B 01 Jun 15:43:58 15:48:24 27° 264° (W) 15:52:53 435.225
AO-85 01 Jun 15:48:27 15:51:43 20° 251° (WSW) 15:54:49 145.980
TISAT 1 01 Jun 15:56:53 15:58:07 11° 295° (WNW) 15:59:21 437.305
KKS-1 01 Jun 15:58:56 16:00:01 11° 92° (E) 16:01:06 437.445
YUBILEINY 01 Jun 15:59:17 16:07:32 51° 89° (E) 16:15:48 435.215
SWISSCUBE 01 Jun 16:00:24 16:05:08 62° 286° (WNW) 16:09:52 437.505
Cosmos 2491 01 Jun 16:05:23 16:14:05 75° 267° (W) 16:22:44 435.465 / 435.565
ITUPSAT 1 01 Jun 16:09:37 16:14:20 56° 286° (WNW) 16:19:02 437.325
HORYU 2 01 Jun 16:19:51 16:22:09 14° 66° (ENE) 16:24:27 437.375
BEESAT 01 Jun 16:29:49 16:34:06 34° 290° (WNW) 16:38:23 436.000
MOZHAYETS 4 01 Jun 16:51:32 16:55:50 37° 98° (E) 17:00:08
RS-15 01 Jun 16:52:15 17:03:16 65° 113° (ESE) 17:14:55 29.354- 29.394
AO-7 01 Jun 17:13:25 17:21:09 43° 260° (W) 17:28:57 29.400- 29.500
Cosmos 2504 01 Jun 17:22:53 17:29:42 46° 89° (E) 17:36:53 435.465 / 435.565
KKS-1 01 Jun 17:32:33 17:36:53 56° 286° (WNW) 17:41:11 437.445
NOAA 18 01 Jun 17:45:42 17:49:43 21° 65° (ENE) 17:53:44 137.9125
CUTE-I 01 Jun 17:47:16 17:50:37 17° 64° (ENE) 17:53:59 437.470
PCSat 01 Jun 17:47:41 17:52:03 24° 53° (NE) 17:56:23 145.827
STARS 01 Jun 17:52:59 17:57:19 66° 285° (WNW) 18:01:38 437.465
HORYU 2 01 Jun 17:54:02 17:58:17 46° 260° (W) 18:02:32 437.375
YUBILEINY 01 Jun 17:57:07 18:04:33 31° 287° (WNW) 18:12:02 435.215
Cosmos 2491 01 Jun 18:07:31 18:09:17 11° 284° (WNW) 18:11:03 435.465 / 435.565
NOAA 15 01 Jun 18:15:33 18:20:37 48° 72° (ENE) 18:25:42 137.62
MOZHAYETS 4 01 Jun 18:29:28 18:32:42 19° 292° (WNW) 18:35:56
CUBESAT XI-V 01 Jun 18:31:53 18:36:28 50° 99° (E) 18:40:59 437.345
Cubesat XI-IV 01 Jun 18:40:33 18:45:43 56° 73° (ENE) 18:50:55 437.490
GOMX 1 01 Jun 18:43:39 18:48:29 34° 71° (ENE) 18:53:12 467.674
BRITE-PL 01 Jun 18:46:47 18:52:28 76° 76° (ENE) 18:58:08 437.365/2234.400
O/OREOS (USA 219) 01 Jun 18:53:44 18:57:58 41° 66° (ENE) 19:02:11 437.305
DOVE 4 01 Jun 19:04:55 19:09:03 25° 70° (ENE) 19:13:03 437.250
